Theta_e
299 301 301 302 303 304 304 304 305 306 306 307 307 307 307 307 307 308 309 310 310 309 308 308 308 308 308 307 307 308 310 311 309 309 309 308 307 307 307 307 308 309 308 310 312 311 310 310 310 310 309 311 311 312 313 312 312 312 312 312 310 311 312 310 311 311 310 311 311 311 310 310 310 309 310 311 310 309 308 307 306 305 304 303 303 303 303 303
300 301 302 303 304 304 304 305 306 306 307 307 307 307 307 307 307 308 309 309 310 310 309 309 308 308 308 308 308 308 309 311 309 310 309 307 307 307 308 307 308 309 308 311 311 310 309 309 309 308 308 309 310 310 312 311 311 312 312 311 311 312 311 310 310 310 310 310 311 311 310 309 309 308 308 310 309 308 308 306 305 304 302 302 302 303 302 302
301 302 303 304 304 304 304 306 306 307 307 307 307 307 308 307 308 309 309 310 311 310 309 309 309 308 308 308 309 308 309 311 309 309 309 306 307 307 307 307 308 308 309 310 310 310 310 309 309 308 307 308 309 310 311 311 311 312 311 312 312 311 311 309 309 309 309 309 309 310 310 308 306 306 307 309 308 306 306 305 303 302 300 300 300 301 302 301
302 303 304 304 304 304 305 306 307 307 307 307 307 307 308 307 308 309 310 311 312 311 310 309 308 309 309 308 309 309 310 311 309 309 308 306 306 307 307 307 309 308 308 309 309 310 309 309 309 308 308 310 309 309 311 311 311 312 311 312 311 310 311 309 307 308 308 308 308 309 310 308 305 305 306 308 308 306 305 303 301 300 299 298 298 299 300 300
303 304 304 304 304 305 305 306 307 307 307 307 307 307 308 307 308 309 310 312 311 312 311 309 308 308 308 308 307 308 311 312 309 309 307 306 307 307 307 308 309 309 309 309 309 310 310 310 309 309 310 311 311 310 311 310 311 312 311 311 310 310 310 308 307 307 306 308 308 309 309 307 305 304 304 305 306 304 303 302 300 298 298 297 297 298 299 299
304 304 304 304 304 305 306 307 307 307 307 307 307 307 307 308 308 309 311 311 311 311 311 309 308 309 309 308 308 309 311 311 309 308 306 306 308 307 308 308 309 310 310 311 310 311 311 310 310 311 311 311 311 312 311 310 311 313 311 310 309 309 308 307 308 306 306 308 308 309 308 306 304 303 302 302 302 302 301 300 299 298 298 298 297 297 297 297
304 304 304 304 305 305 306 307 307 307 307 307 307 307 307 308 309 309 310 310 310 311 309 308 308 309 309 310 312 312 310 309 308 307 306 307 308 308 309 309 310 311 312 312 311 311 310 310 311 311 312 312 311 312 311 311 312 313 312 309 309 308 307 307 307 306 306 307 307 308 307 305 304 302 301 301 300 300 300 300 299 298 298 298 297 297 296 297
304 304 304 304 305 306 307 307 308 308 308 308 307 307 307 308 308 309 310 310 311 311 309 307 309 309 309 311 315 312 307 307 307 306 306 308 308 308 309 309 310 311 311 312 312 311 311 311 311 311 313 312 311 313 313 312 313 313 311 309 307 307 306 307 307 306 307 307 307 306 305 303 303 302 301 300 299 298 299 299 298 298 298 297 296 296 296 296
304 304 304 304 305 306 307 307 308 308 308 308 308 308 308 308 309 309 309 310 311 311 309 308 308 310 309 311 316 310 306 307 307 306 307 308 308 308 310 309 310 311 312 311 311 311 310 310 310 311 312 310 311 313 313 314 313 311 310 307 306 306 306 307 307 306 306 306 306 306 304 303 302 302 301 299 299 298 298 298 297 297 297 296 296 296 296 295
304 304 304 305 306 307 307 307 308 308 308 308 308 308 308 308 309 309 309 310 310 311 310 309 309 312 311 312 313 309 306 307 306 306 307 308 309 309 309 309 310 311 312 310 310 310 309 309 308 309 311 310 311 312 313 314 312 311 310 306 306 306 306 307 306 306 306 306 306 305 304 303 302 304 302 299 298 298 298 297 297 297 296 296 296 296 296 296
304 304 304 305 307 307 308 308 308 308 309 309 308 308 308 308 308 309 310 310 310 311 311 309 309 311 310 308 309 307 305 306 306 306 306 308 309 309 308 309 310 311 312 309 309 310 309 309 309 310 312 310 311 311 311 312 311 310 309 307 307 306 305 306 306 306 306 306 305 305 303 302 302 303 301 298 298 298 298 297 297 297 296 296 296 295 296 296
304 304 305 306 307 308 308 308 309 309 309 309 309 309 309 308 308 309 311 310 310 310 310 309 307 310 311 308 306 305 306 306 306 305 306 308 308 308 308 309 309 311 311 310 309 308 309 311 310 311 311 310 312 312 309 309 311 309 308 309 308 307 307 305 305 306 306 306 305 305 305 304 302 300 299 298 298 298 297 297 297 297 296 296 296 295 295 295
304 305 306 307 307 308 308 309 309 309 309 309 309 309 308 308 309 310 311 311 309 309 310 309 309 312 312 308 306 305 305 306 305 306 307 308 308 308 308 309 310 310 310 309 308 308 309 310 309 310 311 312 313 311 309 308 309 309 309 310 308 308 309 306 305 306 305 306 306 306 307 306 302 299 298 298 298 298 298 297 297 297 296 296 296 295 295 295
305 306 307 307 308 308 309 309 309 308 308 308 309 309 309 309 309 310 311 310 309 309 310 308 309 313 311 307 306 305 305 306 305 305 307 308 309 309 309 309 309 309 309 308 308 308 308 309 310 311 310 311 311 309 310 309 309 310 310 310 307 306 308 307 306 306 306 306 306 306 307 306 301 298 298 297 298 298 298 297 297 296 296 296 295 295 295 294
305 307 307 308 308 309 309 309 308 307 307 307 308 309 309 310 310 310 311 309 308 308 309 309 310 312 310 307 307 306 305 306 305 305 306 306 308 310 310 309 308 308 308 308 307 307 307 308 310 311 309 309 310 311 312 310 310 310 309 308 307 305 306 308 306 306 306 305 306 306 306 306 302 298 298 297 297 298 297 297 296 296 296 295 295 295 294 294
306 307 307 308 309 309 309 309 308 307 307 307 307 308 309 310 310 311 310 309 308 308 309 311 311 311 309 306 306 306 306 305 305 305 305 306 307 309 309 309 309 308 308 307 307 307 308 308 309 311 310 308 309 311 311 309 307 307 307 307 307 306 306 308 307 307 307 306 306 306 305 306 302 298 297 297 297 297 297 297 296 296 295 295 295 294 294 294
307 307 308 308 309 309 309 309 308 307 308 307 307 306 307 309 310 310 310 309 308 308 309 310 311 311 308 306 306 306 306 305 304 304 305 306 306 307 309 310 310 310 309 308 307 307 308 308 309 309 309 307 308 309 307 306 306 306 306 305 305 306 305 305 307 308 308 306 306 306 306 306 302 298 297 297 297 297 297 296 296 295 295 295 295 294 294 294
308 308 308 309 309 309 309 308 308 308 309 309 308 307 306 306 307 308 310 310 310 310 310 309 311 312 308 306 306 305 305 305 304 305 306 306 306 306 308 309 310 310 310 308 307 309 309 309 309 307 307 307 307 308 307 305 307 308 306 304 304 305 306 305 306 309 308 306 305 305 306 306 302 299 298 296 296 296 296 296 295 295 295 295 294 294 294 293
308 308 309 309 308 308 309 308 308 308 309 309 309 309 309 309 308 307 309 310 310 310 309 309 310 309 307 305 305 304 305 305 304 305 305 306 306 307 307 308 309 310 310 309 308 310 310 308 308 306 306 306 306 307 307 306 308 309 308 307 306 306 307 306 305 308 308 305 304 304 305 306 303 300 298 297 296 296 296 295 295 295 294 294 294 294 293 293
308 309 308 308 308 308 308 308 309 309 309 310 310 312 313 312 310 307 308 309 309 308 307 308 308 306 305 304 304 304 304 305 305 305 304 305 306 307 308 309 310 309 309 311 310 310 309 307 307 306 306 305 305 306 307 306 307 309 309 308 307 306 305 303 305 308 307 304 303 303 304 305 304 301 299 297 296 296 295 295 295 294 294 294 293 293 293 293
309 309 309 308 308 309 308 308 308 309 310 309 311 314 314 313 312 309 308 308 308 308 307 306 307 306 304 304 304 303 304 305 306 305 304 305 307 308 308 310 310 309 309 311 311 308 307 306 306 307 306 305 305 305 306 307 308 309 308 306 305 304 303 302 306 308 306 304 304 303 305 306 305 302 299 297 296 296 295 294 294 294 294 294 293 293 293 293
309 309 309 309 309 309 308 308 308 309 310 309 312 314 311 311 311 310 310 309 307 308 307 306 307 305 305 305 304 303 303 305 305 304 303 305 308 308 310 311 309 309 310 310 310 307 305 305 306 306 306 305 306 307 306 307 308 308 306 303 302 303 302 303 307 307 306 305 305 304 305 305 305 302 298 297 297 295 295 294 294 294 294 293 293 293 293 292
309 309 309 309 309 309 309 309 308 308 309 311 314 314 310 308 306 308 311 309 307 308 308 306 305 304 305 305 303 304 304 304 304 303 303 304 306 308 309 310 309 308 309 308 307 304 303 303 305 306 305 305 306 307 305 305 307 306 303 302 302 302 302 302 305 305 305 305 305 305 305 305 304 302 298 297 296 295 294 294 294 294 293 293 293 293 292 292
308 308 309 309 309 309 309 309 309 308 308 310 311 311 308 307 306 307 312 310 308 309 307 306 305 303 304 304 303 305 304 303 303 302 303 303 305 307 307 307 309 309 308 309 307 305 305 304 305 306 306 305 306 305 304 303 305 305 304 302 301 301 301 301 302 303 304 305 305 305 304 304 304 302 299 297 296 295 294 294 294 294 294 293 293 293 292 292
308 308 309 309 309 309 309 310 310 308 309 311 309 308 307 307 307 308 312 311 307 308 307 306 306 303 303 303 304 306 305 304 303 303 304 303 303 306 306 306 308 308 309 310 308 306 306 304 304 307 307 305 305 304 304 303 303 304 304 302 301 301 301 302 302 303 302 303 305 305 301 301 304 304 302 298 296 295 295 294 294 294 294 294 293 293 292 292
308 308 308 309 309 309 310 313 310 309 314 313 308 308 308 308 308 308 313 312 306 307 309 308 307 305 304 304 305 307 307 305 304 303 304 303 303 305 307 306 307 308 308 309 307 305 306 305 305 307 306 304 303 303 304 303 302 303 304 302 302 302 302 302 303 302 301 301 304 304 301 300 302 303 303 300 297 296 295 295 295 294 294 294 293 293 292 292
308 308 308 308 309 310 312 312 309 312 318 314 308 308 308 309 308 308 313 310 306 307 308 307 307 305 305 305 306 307 306 305 305 304 304 304 303 306 307 306 306 307 306 306 306 304 305 307 306 305 304 302 301 302 303 302 302 303 303 302 302 302 302 302 302 302 302 302 303 304 303 301 300 302 304 301 298 297 296 296 295 294 294 293 293 293 292 292
308 308 308 309 308 309 311 310 312 315 314 309 307 308 309 309 308 311 313 307 305 307 306 307 307 304 305 307 306 306 305 304 305 304 304 305 304 306 307 306 305 305 305 307 305 303 305 306 305 305 303 300 300 301 302 302 303 302 302 303 303 303 303 303 302 302 302 302 302 303 302 300 299 301 302 300 299 299 297 296 295 294 294 293 293 292 291 291
308 308 308 308 308 308 308 308 312 313 308 305 308 309 308 308 309 314 312 304 305 307 306 307 307 304 306 308 307 306 305 305 305 304 306 306 305 305 305 305 306 305 306 308 305 303 305 304 305 306 302 300 301 301 302 303 302 302 303 304 304 304 305 304 302 301 302 301 301 301 299 298 298 299 300 301 301 300 298 297 295 294 293 292 292 291 290 290
307 308 307 307 308 309 308 308 308 308 306 306 308 308 307 308 311 312 307 305 307 308 307 307 306 305 305 307 306 306 306 305 304 305 306 306 305 306 304 302 305 306 305 307 305 304 304 303 305 306 301 300 301 302 302 302 302 304 303 302 301 302 303 303 302 301 301 300 300 299 298 298 297 298 300 300 299 298 297 296 295 293 292 291 290 290 289 289
306 306 305 305 307 307 310 312 308 305 306 306 306 309 310 311 312 309 306 306 308 308 308 307 306 305 304 305 305 305 305 305 304 305 305 305 305 305 304 302 305 306 305 305 305 304 304 303 304 304 302 301 301 302 304 303 303 304 302 299 299 300 299 300 300 300 300 299 299 298 297 298 297 298 300 298 296 296 295 295 293 292 291 290 289 289 289 288
304 304 304 305 306 306 309 312 307 305 306 306 307 312 314 311 308 306 306 307 308 307 305 304 306 306 304 303 304 303 304 304 304 304 304 304 304 303 303 302 303 305 303 302 303 304 304 302 301 302 301 301 301 300 302 302 302 301 300 298 298 299 299 299 299 299 298 298 298 297 297 298 298 299 299 297 295 295 294 293 292 291 290 289 289 289 288 288
303 303 304 306 307 306 308 307 306 306 305 305 309 314 313 308 306 305 305 305 306 305 304 304 305 305 303 304 303 303 303 303 303 304 304 304 304 303 303 302 302 303 302 302 301 301 303 302 302 303 301 301 300 298 298 299 300 299 299 298 297 297 298 298 298 298 297 297 297 297 297 298 298 299 298 296 295 294 293 292 291 290 290 289 289 288 288 287
303 303 303 304 305 306 307 306 305 306 304 306 312 314 313 307 304 305 305 304 304 304 304 304 303 304 304 303 302 302 303 303 303 303 304 304 303 303 302 302 302 302 303 303 300 299 301 302 302 302 300 299 300 299 298 299 299 299 299 298 297 297 297 297 298 297 297 297 297 297 298 298 298 298 296 295 294 294 292 292 291 291 290 289 289 288 287 286
304 303 303 302 303 304 305 306 305 303 305 310 313 312 310 305 303 304 305 304 304 304 305 303 302 305 305 303 302 301 302 303 303 302 302 302 301 301 301 301 301 301 302 303 300 299 300 301 302 301 299 299 299 299 300 300 299 298 299 298 296 295 296 296 297 297 298 297 296 297 297 297 298 297 295 294 294 294 292 291 291 290 289 289 288 288 287 286
305 305 305 302 302 302 302 304 305 302 305 313 313 308 306 304 302 303 304 304 303 303 304 304 303 304 304 304 303 302 302 302 302 302 302 301 301 301 301 301 300 300 301 301 300 298 299 300 303 302 299 298 298 299 300 299 297 297 298 297 296 295 296 296 297 296 296 295 295 296 296 296 296 295 294 295 294 293 292 291 290 289 288 287 287 286 285 285
307 306 306 303 301 302 302 303 304 304 308 314 311 305 303 302 301 301 303 303 302 301 303 305 303 302 303 304 304 303 303 303 303 303 301 301 301 300 301 300 299 299 299 299 300 299 298 300 302 302 300 299 297 298 299 299 298 297 297 296 295 296 297 296 295 295 294 294 294 295 295 295 295 295 295 295 294 292 291 290 289 288 287 286 286 285 285 285
305 306 308 304 301 302 303 302 304 308 312 311 307 303 302 303 301 301 302 302 302 302 303 303 303 302 302 303 303 302 302 303 303 302 301 301 302 300 299 300 299 299 298 298 300 300 298 299 301 301 300 299 298 298 298 299 299 298 297 296 295 295 296 295 294 293 294 294 294 295 295 295 294 294 294 293 292 291 290 289 288 287 286 285 285 285 285 285
306 309 309 304 302 303 304 304 307 311 311 309 307 304 302 303 302 300 300 301 302 303 302 302 302 302 302 302 302 301 302 303 302 301 302 301 302 300 298 299 299 299 298 298 300 299 299 299 299 299 299 299 299 298 297 297 298 298 297 297 296 294 295 294 294 294 295 294 294 294 294 294 294 293 293 292 291 290 289 288 287 286 285 285 284 284 284 284
309 311 308 304 303 304 304 307 310 311 309 306 306 304 303 304 302 299 297 299 302 302 302 302 302 302 302 302 301 301 302 302 301 301 301 301 301 300 297 296 297 297 297 298 299 298 299 299 298 299 300 299 298 297 296 296 297 297 296 296 296 295 295 294 294 294 294 294 293 293 293 292 293 293 292 292 290 289 288 287 286 285 285 284 284 284 284 284
309 312 308 304 303 304 306 309 307 306 306 304 304 303 304 305 303 300 297 297 302 302 301 302 302 302 302 302 301 301 302 302 301 301 301 301 301 301 297 294 295 295 296 299 299 298 298 299 298 298 298 298 298 297 296 296 296 295 295 296 295 294 294 294 293 293 293 292 292 292 292 292 292 293 292 290 289 288 287 286 285 285 284 284 284 284 284 284
310 309 307 304 303 305 309 309 306 305 305 304 303 304 305 304 302 301 300 298 301 302 300 301 303 303 303 303 302 301 301 301 301 301 300 300 300 300 297 294 294 294 296 298 297 296 296 298 298 298 297 298 297 295 294 295 295 295 295 294 294 294 294 293 293 292 291 292 292 292 292 292 292 292 290 289 288 287 286 286 285 284 284 284 284 284 284 283
309 307 306 304 303 307 311 308 305 305 304 302 302 302 302 303 302 301 301 301 301 302 302 302 302 302 302 303 303 302 301 301 301 300 300 300 299 297 296 294 294 295 297 298 298 296 296 297 297 297 297 297 296 294 294 294 294 296 295 294 294 294 293 292 293 292 292 292 292 292 291 291 291 290 289 288 287 286 286 285 284 284 283 283 283 283 283 283
307 307 308 305 303 308 311 308 306 304 302 301 302 301 301 302 302 302 302 303 302 301 302 302 302 302 302 302 302 302 300 300 300 300 299 299 299 295 295 294 294 296 296 296 297 297 298 297 296 295 295 296 296 295 295 294 294 295 294 294 294 293 292 292 292 292 291 292 291 290 290 290 289 289 288 286 286 285 285 284 284 283 283 283 283 283 283 283
308 308 309 306 304 307 308 305 306 305 301 302 302 301 302 302 301 301 302 302 301 300 301 302 301 301 301 301 302 301 300 300 300 299 297 298 298 296 295 294 294 295 295 294 293 294 298 297 295 294 294 294 295 294 294 294 294 294 294 294 294 293 292 292 291 290 290 290 290 289 289 289 287 287 286 285 285 285 284 284 283 283 283 283 283 283 283 283
310 309 308 307 306 305 303 303 305 304 302 303 302 300 301 302 300 300 301 302 301 300 301 301 300 300 301 302 302 301 299 299 299 298 297 298 298 296 296 295 295 295 295 294 292 293 297 297 295 293 293 293 293 294 294 294 293 293 294 294 294 294 292 291 290 290 290 290 289 289 288 287 286 285 285 285 285 284 283 283 282 283 282 282 282 283 283 283
311 307 305 307 307 306 304 303 303 304 303 303 302 300 301 301 300 300 301 301 300 300 301 301 301 301 302 302 302 301 300 300 298 297 296 296 296 296 295 296 296 295 295 295 293 293 295 296 296 294 293 293 293 293 294 294 293 293 293 293 293 293 291 291 290 290 289 289 288 287 286 286 285 284 285 284 284 283 283 282 282 282 282 282 282 282 282 282
307 304 301 304 306 306 305 304 304 305 304 303 301 300 301 301 301 301 301 300 299 299 301 302 302 302 301 301 301 300 300 300 299 299 297 296 297 297 297 296 296 296 296 295 293 291 292 295 295 294 293 292 292 293 293 292 292 291 292 292 292 292 291 291 290 289 288 287 286 286 285 284 284 284 284 284 283 283 282 282 282 282 282 282 282 282 282 282
304 302 300 301 303 301 300 301 303 306 305 302 302 301 301 301 301 300 300 301 301 300 300 302 303 301 300 301 300 299 300 299 299 300 299 298 298 298 297 297 296 295 295 294 293 291 293 296 295 293 293 293 293 293 292 291 291 291 291 291 291 290 290 289 288 287 286 285 285 284 284 284 284 284 284 283 283 283 282 282 282 282 282 282 282 282 282 282
306 305 302 302 302 299 297 298 302 306 305 303 303 302 302 302 302 301 300 301 302 302 301 303 303 301 301 301 299 299 299 299 300 299 297 298 299 298 297 297 297 296 294 293 293 293 293 295 294 292 293 294 294 292 291 291 290 290 291 291 289 288 287 287 286 286 285 285 284 284 284 284 284 284 284 283 283 282 282 282 281 281 281 281 281 282 282 282
302 303 304 306 302 298 299 299 301 305 304 303 304 303 303 304 302 302 301 300 301 302 302 302 302 301 301 300 299 300 299 298 299 298 296 297 298 296 296 296 296 297 295 293 292 293 292 292 293 292 292 293 292 291 290 291 290 289 290 289 287 286 286 286 286 285 284 284 284 284 284 284 284 284 283 282 282 282 281 281 281 281 281 281 281 281 281 281
300 301 305 309 304 298 299 301 302 304 303 302 303 304 304 304 301 302 302 300 300 301 300 301 301 301 301 299 299 298 297 296 296 296 295 296 295 294 294 294 294 295 294 293 292 292 292 292 292 292 291 292 291 290 290 291 291 290 290 288 285 285 285 285 284 284 284 284 284 284 284 283 283 283 282 281 281 281 281 281 281 281 281 281 281 281 281 281
Wind_Speed
7 6 6 6 5 5 5 6 6 6 6 6 6 7 6 5 6 8 8 8 9 9 7 5 5 6 7 6 7 9 8 9 13 16 15 12 17 18 18 18 18 18 16 10 9 8 6 6 4 4 6 4 1 0 2 0 1 4 4 4 4 3 4 7 7 6 8 9 10 10 7 7 8 8 6 1 5 10 13 13 12 13 15 15 16 18 21 23
7 6 6 6 5 5 5 6 6 6 5 6 5 5 4 3 5 7 8 9 9 9 8 4 1 4 6 5 3 2 2 5 13 15 13 16 20 18 18 18 17 18 15 8 8 9 6 5 5 5 6 3 2 1 2 1 2 3 4 4 2 5 5 6 7 6 7 9 9 8 6 8 9 9 7 5 10 13 12 12 12 13 15 16 18 20 21 24
6 6 6 5 5 5 5 5 5 5 5 6 6 4 3 3 4 6 8 9 10 10 10 7 2 4 6 6 6 4 4 1 9 12 12 21 22 18 19 17 16 17 12 7 7 7 6 6 5 6 5 2 1 1 2 0 1 2 3 3 4 5 4 6 7 6 7 8 9 7 5 10 11 10 7 3 10 14 13 12 12 13 15 15 17 19 21 22
7 6 6 5 5 5 6 5 5 6 7 8 7 4 4 4 4 7 9 9 11 10 11 9 3 2 6 8 9 6 7 5 6 9 15 25 23 17 17 16 15 15 9 6 6 5 5 6 5 4 4 2 2 1 0 2 2 1 2 3 7 6 3 7 7 7 7 6 7 6 3 8 11 12 10 5 7 11 11 11 12 13 14 15 15 17 20 21
6 6 5 5 5 5 5 5 5 7 8 9 8 5 6 5 6 7 8 9 11 11 11 8 5 4 1 5 8 7 6 4 5 12 22 29 21 15 14 13 13 12 9 5 5 4 5 5 3 3 3 0 2 1 2 4 3 1 4 6 7 6 4 6 6 6 7 6 4 4 5 7 9 11 13 11 9 7 8 9 11 12 13 14 14 16 18 20
6 6 5 5 5 5 4 5 6 7 8 8 8 7 6 6 6 6 7 8 11 12 12 6 6 9 10 8 6 7 2 1 8 17 27 28 16 11 10 10 11 12 10 5 4 4 4 4 3 1 1 2 3 2 4 3 3 0 5 6 5 4 4 5 5 4 5 6 5 4 6 7 9 10 11 13 11 7 7 8 9 10 11 12 14 15 16 17
6 6 5 5 4 4 4 5 6 6 7 7 7 6 6 6 5 5 6 8 11 12 13 6 4 4 7 8 6 4 5 6 13 21 26 22 11 8 8 9 11 12 11 8 7 5 5 6 2 2 1 3 3 4 3 2 2 2 4 5 3 2 4 4 3 2 3 7 6 4 6 7 10 10 9 11 10 7 6 6 7 8 10 12 13 13 14 16
5 5 5 4 4 4 4 5 5 5 6 6 6 5 4 4 3 4 6 8 11 10 13 10 1 5 2 2 2 4 10 10 17 23 22 17 10 9 9 9 10 10 11 11 10 7 5 7 6 3 1 4 3 2 1 0 3 5 4 3 2 1 3 3 3 4 5 5 6 8 9 10 11 11 10 10 8 7 6 5 6 7 9 10 12 13 13 14
5 4 4 4 4 4 4 4 5 5 5 4 4 3 3 3 3 4 6 8 10 9 11 14 7 1 4 6 6 4 10 12 17 20 18 15 12 10 9 9 9 8 10 12 12 9 5 6 6 4 3 5 2 2 0 2 3 4 4 4 4 3 2 3 4 5 5 4 6 8 9 8 8 7 8 9 6 5 5 5 5 5 8 9 10 11 12 13
4 4 4 4 3 4 4 5 6 6 5 3 2 2 2 3 3 4 6 8 10 7 7 11 12 8 6 4 1 6 10 13 15 17 15 13 11 10 10 9 8 8 10 12 11 10 7 5 5 4 2 3 2 2 2 2 3 4 6 6 5 5 4 2 3 5 5 5 4 6 8 6 3 1 3 7 4 4 4 5 5 5 7 8 9 10 11 13
3 3 4 4 4 5 6 6 7 6 6 4 2 1 1 2 3 4 6 8 10 8 7 8 9 10 14 13 8 8 11 13 14 17 14 12 11 10 10 10 9 8 8 10 10 8 7 6 4 2 0 1 3 3 3 2 3 5 7 6 2 2 4 2 3 4 2 4 3 5 8 6 3 2 3 5 2 3 3 4 5 5 6 7 8 9 10 12
3 4 4 4 6 6 6 7 6 6 6 4 2 1 1 1 2 3 5 9 10 8 6 7 9 5 7 13 11 8 11 12 14 15 13 11 11 11 9 9 9 7 6 7 8 9 8 8 5 2 2 1 3 3 4 2 3 6 7 6 5 5 1 3 3 4 2 2 4 5 5 4 5 5 4 3 1 3 3 3 4 4 5 5 7 7 8 11
4 4 5 5 6 6 6 6 6 7 6 5 3 2 1 1 2 3 5 9 10 7 4 6 10 7 5 8 8 10 13 12 14 14 13 11 8 9 9 9 9 8 7 8 7 8 9 10 8 6 3 2 2 2 2 3 3 5 6 5 2 5 2 4 3 5 3 3 4 4 4 2 6 6 4 3 1 3 3 4 4 4 5 5 6 6 8 11
5 5 5 5 5 6 6 6 7 9 10 9 5 1 2 1 2 4 5 9 9 5 4 5 5 4 6 6 5 13 17 13 16 18 17 14 7 4 7 8 8 8 7 7 5 6 7 8 6 5 3 4 4 1 2 4 3 2 2 3 2 2 1 5 2 5 3 2 1 5 6 1 7 6 5 3 1 2 2 4 4 4 4 5 6 6 7 10
5 5 5 5 6 7 7 8 10 14 18 18 10 2 1 1 2 3 5 10 11 8 4 5 4 3 4 6 3 12 19 17 19 19 17 17 10 4 6 6 6 8 7 5 3 4 5 6 4 3 3 2 2 2 3 4 2 2 2 2 4 5 4 1 3 2 5 5 6 5 5 1 8 7 5 3 2 2 2 3 4 5 5 5 5 6 7 8
5 5 6 6 7 7 8 9 12 16 20 23 22 13 4 1 1 2 4 5 11 14 9 5 8 6 5 5 5 11 18 19 18 16 13 14 12 7 5 4 2 4 5 4 3 2 3 3 3 2 3 2 1 3 3 2 3 5 5 4 5 6 7 4 3 2 6 8 8 3 4 2 6 8 6 4 2 3 2 3 4 4 5 5 5 6 7 7
6 6 6 6 6 6 6 9 12 14 15 18 25 26 21 12 4 2 3 2 5 10 11 11 8 1 7 8 9 11 16 17 17 16 14 12 12 10 7 4 1 3 2 1 2 2 3 2 1 0 5 7 8 7 1 3 5 5 6 6 6 8 8 7 2 2 7 9 10 6 6 2 6 9 6 5 3 3 2 2 3 3 4 5 5 6 7 8
6 6 7 7 6 5 5 9 10 8 8 9 13 21 27 27 24 19 12 6 3 3 6 16 11 3 5 11 11 13 16 16 16 18 15 11 10 10 7 3 4 6 4 2 3 4 3 2 1 3 7 9 10 9 5 5 6 6 7 7 7 9 8 10 8 5 8 10 12 11 8 3 7 9 6 6 4 3 3 2 2 2 3 4 5 6 7 8
7 7 8 8 9 8 6 7 6 2 1 4 4 4 7 13 22 27 23 16 10 4 3 11 10 4 4 11 13 16 16 12 12 18 17 13 11 9 6 3 3 4 2 1 7 7 4 3 5 7 9 9 9 8 6 5 7 7 7 6 7 10 7 11 12 6 8 10 12 11 9 6 4 8 7 7 5 4 4 2 2 2 3 4 5 6 7 7
7 8 8 11 13 12 7 3 2 2 5 5 6 5 2 1 7 12 16 18 12 8 8 6 7 7 6 9 13 18 13 7 9 19 21 17 13 9 4 3 1 3 4 2 7 7 5 7 8 7 7 8 8 7 6 6 7 7 7 7 8 9 8 13 13 4 5 7 11 12 10 10 5 8 8 8 7 5 5 3 3 2 2 3 4 5 7 7
7 8 7 10 14 13 9 6 4 4 4 2 2 2 0 2 5 4 5 10 8 7 10 7 6 7 5 5 11 16 7 3 10 20 25 20 9 5 5 5 1 4 5 1 2 5 7 9 8 6 5 6 6 6 6 5 6 7 6 7 8 8 10 15 10 2 3 4 10 14 10 10 8 9 9 8 8 6 5 3 3 2 2 3 4 5 6 6
7 7 6 8 10 10 10 11 10 8 8 9 9 6 4 3 6 6 3 7 7 5 6 7 8 9 4 2 8 13 5 4 11 19 27 23 9 4 6 6 6 7 7 2 1 4 8 9 7 6 5 5 5 5 7 7 7 6 4 6 7 8 11 12 3 2 2 3 9 13 9 11 8 9 10 9 8 5 5 3 2 2 3 3 5 5 6 8
7 7 7 7 7 8 8 10 11 11 12 12 10 7 5 6 8 6 1 5 6 3 4 7 9 11 9 3 9 14 7 9 11 16 24 20 9 6 7 7 8 8 9 9 6 6 7 7 8 6 4 7 5 4 9 8 6 4 3 7 7 10 11 9 5 5 9 9 11 12 9 11 7 9 8 8 7 5 5 4 3 1 2 4 5 6 7 9
8 8 9 9 8 7 5 7 9 13 15 13 11 7 6 6 5 2 1 2 4 3 3 3 4 9 10 4 9 12 7 10 10 14 20 16 8 4 4 5 5 6 8 8 9 10 7 4 6 6 4 6 6 5 10 9 5 1 3 7 9 13 13 12 13 13 14 10 6 7 10 8 6 11 9 7 7 6 6 5 3 1 2 4 6 7 8 10
8 9 10 9 8 6 2 4 7 9 11 10 8 6 5 3 2 1 1 2 3 3 2 1 0 7 9 6 9 7 1 6 10 12 15 13 9 4 1 2 2 5 5 5 5 8 6 2 4 6 5 5 6 6 7 7 8 1 3 8 12 15 16 17 16 13 11 6 3 3 8 6 5 11 10 8 8 8 6 5 2 1 3 5 7 8 10 11
7 8 9 9 9 5 1 2 4 4 5 5 4 2 2 1 3 1 2 2 4 5 4 4 3 9 11 10 12 4 2 4 7 11 15 12 7 2 1 2 1 4 4 4 3 3 3 1 3 7 7 6 7 6 5 5 8 4 4 10 14 15 16 17 15 9 6 7 3 4 5 8 6 6 9 11 9 9 7 4 1 3 5 7 8 9 11 12
5 7 8 9 9 6 1 1 3 2 2 2 2 2 2 0 3 3 2 2 4 4 7 7 5 9 11 12 15 3 2 7 6 10 17 14 7 3 1 4 2 3 3 2 1 2 4 3 3 8 8 7 7 6 7 7 6 5 9 14 15 16 17 16 13 8 6 9 9 6 5 8 10 4 8 12 9 9 8 3 1 4 7 8 11 11 12 15
3 6 7 8 8 6 4 2 2 2 2 1 1 2 2 2 4 2 3 0 4 4 3 4 4 8 9 10 13 8 2 7 6 9 16 13 8 3 1 6 3 3 2 2 1 3 3 4 5 8 8 8 7 8 8 6 5 7 12 15 15 16 17 14 9 8 8 8 6 1 2 8 10 6 4 10 8 8 8 3 2 6 9 11 13 13 15 18
3 5 6 8 6 5 4 2 1 2 2 2 2 3 2 3 3 3 2 1 3 2 1 3 4 6 11 9 9 10 4 5 5 8 13 9 9 5 2 4 4 3 2 2 4 3 1 3 3 5 7 7 9 10 7 5 5 10 15 15 15 15 14 11 7 8 8 7 6 9 12 10 9 10 4 5 5 4 4 2 3 7 10 12 14 15 17 18
4 5 7 8 5 3 3 1 2 3 3 2 3 2 2 2 2 2 1 2 3 2 1 4 4 5 11 8 6 9 8 6 5 8 7 5 7 8 3 0 3 3 1 5 6 3 2 1 2 2 4 5 10 10 4 4 8 11 14 14 13 11 8 6 6 7 7 7 8 15 19 14 10 10 5 1 1 3 3 2 5 9 12 14 15 16 18 17
7 7 8 8 4 3 2 1 3 3 3 3 3 2 2 2 1 0 3 2 2 3 1 3 4 4 9 6 4 9 7 5 8 9 8 6 7 11 6 1 3 3 1 4 4 4 4 2 1 2 2 6 10 9 2 4 8 9 10 11 11 9 5 3 4 4 6 8 12 18 22 17 11 8 3 4 5 6 5 5 8 11 14 15 15 16 16 16
11 10 8 8 4 1 1 3 3 4 4 3 4 2 3 1 4 2 2 1 2 3 3 2 4 6 7 3 3 8 5 4 8 7 7 7 7 10 9 7 6 3 2 5 5 2 3 3 3 4 0 6 9 8 3 2 6 7 8 10 9 8 6 5 6 6 6 10 14 20 21 14 10 7 5 5 5 6 5 6 8 12 15 16 17 17 17 17
16 12 10 11 7 4 2 4 4 5 5 4 3 2 2 2 5 2 2 3 2 2 1 2 5 6 7 4 5 7 3 2 8 6 4 5 5 6 8 10 9 5 3 5 8 7 1 4 4 3 1 5 7 7 6 5 7 8 8 8 8 7 7 7 7 7 8 12 16 20 17 10 9 6 5 5 4 5 4 7 10 13 14 16 18 18 20 22
17 16 13 14 12 9 5 5 5 5 6 4 3 1 3 5 3 1 1 2 1 2 2 2 5 6 3 2 4 5 1 2 5 6 5 5 5 5 5 9 12 7 4 4 4 5 5 1 3 3 2 5 6 3 4 7 7 5 6 6 6 6 6 7 7 8 10 13 17 17 11 7 8 4 6 6 5 4 4 9 14 16 16 18 20 21 24 25
15 18 17 17 16 11 5 3 4 4 4 3 1 2 5 4 1 1 1 1 1 3 3 1 4 5 1 2 2 2 2 1 3 4 6 6 5 5 5 7 12 9 5 4 3 3 9 5 3 3 1 3 5 1 2 7 5 4 6 4 6 7 6 7 8 10 13 13 12 10 7 8 8 3 7 4 2 3 8 15 19 22 22 21 22 23 25 24
8 13 18 21 21 15 8 2 2 2 2 2 3 6 4 2 1 1 1 1 2 4 5 1 2 4 3 1 2 4 1 1 3 2 3 5 5 6 5 4 7 9 5 4 2 2 7 6 0 1 1 3 4 1 1 3 4 5 5 5 8 9 6 6 10 11 12 12 9 8 9 10 9 2 5 2 5 9 15 20 23 26 26 23 21 23 25 25
5 6 11 20 24 17 9 6 1 3 2 1 6 6 2 1 1 2 2 2 1 2 5 2 1 3 5 3 3 7 5 1 4 4 1 2 3 5 6 3 4 6 5 3 2 2 3 8 6 3 2 2 2 0 1 1 3 5 4 6 9 7 4 3 8 9 10 10 9 10 13 12 11 7 2 5 14 17 20 23 25 27 26 23 23 26 28 28
5 1 5 18 25 16 7 6 4 3 0 6 8 4 0 1 1 1 2 2 1 2 3 3 2 1 3 4 4 6 7 4 5 5 2 2 2 4 6 4 3 5 5 3 3 2 2 7 3 2 3 2 4 2 1 2 1 3 1 3 4 3 2 5 7 8 10 12 10 11 14 12 10 10 10 13 18 21 24 27 28 28 25 23 26 29 30 29
5 2 2 16 20 12 8 6 2 2 4 7 5 3 1 1 2 3 3 3 2 2 2 3 2 1 2 4 4 3 4 4 5 4 2 3 3 4 5 3 3 6 7 4 3 4 3 4 1 0 8 8 3 2 5 2 3 3 2 0 4 2 5 5 5 6 9 13 13 14 15 9 7 12 15 16 20 25 28 28 27 26 26 26 27 27 27 27
4 1 3 15 14 9 13 10 4 4 7 6 3 2 2 1 3 3 3 3 2 2 3 3 1 2 2 1 2 2 2 2 4 4 3 3 2 3 6 4 4 7 8 5 3 4 3 4 5 6 10 10 3 3 6 6 4 2 3 4 4 3 4 5 5 5 7 12 13 14 14 9 7 12 14 18 24 28 30 29 24 23 27 30 29 27 26 27
3 1 4 15 10 2 7 8 6 6 4 5 5 3 2 1 2 3 2 1 2 1 2 2 2 2 2 1 1 2 2 2 3 3 2 3 4 3 3 4 5 6 7 4 2 3 3 3 7 8 9 8 4 3 3 3 4 5 6 4 3 4 5 6 7 5 6 9 11 13 15 12 8 9 12 19 25 28 30 29 23 24 30 32 30 30 29 27
3 2 4 13 9 4 5 5 5 4 3 4 3 3 2 2 1 2 2 1 1 0 0 1 1 2 2 2 2 2 3 2 2 3 2 3 6 5 2 3 4 3 3 3 1 2 2 3 6 8 8 6 4 4 4 3 2 4 1 1 2 3 4 6 8 9 9 10 11 13 15 13 8 12 17 22 26 29 28 25 23 26 30 30 30 30 29 27
3 3 6 14 9 4 4 7 4 4 5 2 1 3 3 2 2 1 1 1 0 1 1 0 1 1 1 2 2 2 3 2 1 2 1 2 4 4 3 3 4 2 2 3 2 1 1 2 6 8 7 3 4 4 3 2 3 4 1 1 2 2 2 4 8 9 9 11 12 11 14 12 9 15 20 24 28 28 23 23 28 28 26 28 31 28 26 27
2 2 5 15 11 2 1 5 4 4 5 2 2 3 1 2 3 2 1 2 1 1 2 1 1 1 1 1 3 2 3 1 1 2 1 2 3 2 2 3 4 3 3 3 3 3 2 3 7 8 8 6 3 2 2 1 3 7 6 3 4 4 1 4 8 8 9 12 14 13 14 14 14 19 24 27 29 27 23 25 30 28 25 26 27 26 26 27
1 2 1 14 18 9 3 2 4 6 5 4 5 3 1 2 3 2 2 2 1 2 2 1 1 2 1 1 2 1 1 2 1 1 1 2 3 3 2 3 3 3 3 2 3 4 3 4 5 6 7 9 8 7 8 9 7 8 9 8 2 3 2 5 8 8 10 14 16 12 14 21 25 26 28 29 27 25 26 29 29 27 27 27 26 26 26 26
1 3 1 6 11 9 4 3 3 6 5 4 4 2 2 3 2 0 1 1 1 1 2 1 1 2 2 2 3 2 1 1 1 2 2 2 2 2 1 1 1 1 2 2 3 2 3 3 3 6 6 7 9 12 14 14 12 11 13 13 10 2 4 2 7 9 12 16 15 13 17 27 31 30 29 28 26 25 29 31 30 29 29 28 27 27 27 26
1 2 2 1 2 4 4 4 4 3 2 0 1 2 2 2 2 1 0 0 1 1 1 0 1 1 2 3 3 2 2 0 1 2 2 1 2 2 2 1 0 1 2 2 1 1 4 2 3 5 8 10 13 17 18 15 14 15 14 14 13 6 2 3 8 12 15 14 15 19 25 28 30 31 29 26 26 29 31 31 30 29 28 28 28 30 31 29
2 2 1 2 1 2 3 3 4 4 4 3 1 2 2 2 2 1 0 1 1 1 2 1 2 3 4 4 4 4 5 2 2 2 2 1 1 2 3 2 1 1 2 1 4 2 3 1 3 2 10 14 15 17 16 14 12 14 13 11 11 9 8 10 12 14 14 13 18 27 33 31 29 30 28 26 27 30 31 31 30 29 29 29 31 33 32 30
2 4 1 2 2 3 3 2 2 3 5 3 2 2 2 2 2 1 0 1 1 1 1 1 3 3 2 4 4 4 6 4 1 1 1 1 0 1 2 2 1 1 2 3 4 1 2 1 2 2 10 14 13 12 14 14 13 12 9 6 7 10 11 12 14 16 17 17 22 29 34 31 25 24 26 28 28 28 28 29 30 30 31 30 32 33 31 30
1 3 2 2 4 4 2 2 2 1 3 2 2 2 2 2 2 1 0 2 1 1 2 2 3 2 1 3 4 4 5 6 5 2 1 1 1 1 0 1 1 2 4 3 2 2 3 2 1 2 8 10 10 14 17 15 11 8 4 3 8 13 12 11 14 17 18 20 25 29 29 24 18 21 27 28 28 28 29 30 30 30 31 33 34 33 30 29
4 4 3 4 5 2 2 1 2 0 3 2 2 2 0 1 2 0 1 1 2 3 3 3 2 0 1 1 3 4 6 5 4 3 2 1 2 1 2 3 2 2 3 3 2 2 5 4 2 3 5 7 11 18 21 17 7 0 1 6 11 14 14 13 14 16 19 23 28 27 21 16 18 24 29 29 30 31 31 31 29 28 31 35 34 33 31 30
6 4 1 2 4 2 2 1 1 1 2 2 2 1 0 2 1 1 1 1 1 2 3 3 3 2 1 1 3 4 5 4 3 4 3 4 5 5 4 5 5 3 2 2 1 1 3 5 5 5 5 8 13 18 20 16 5 2 3 7 12 15 17 18 18 19 22 22 22 19 17 19 25 30 31 31 32 31 29 29 27 27 29 31 29 30 31 30
Wind_Direction
113 112 101 95 78 59 41 38 46 47 51 50 44 37 40 66 65 62 54 45 44 47 59 83 127 144 146 133 97 90 84 74 64 52 49 19 350 349 349 348 342 344 345 334 330 318 283 265 278 302 274 237 223 193 164 129 298 255 255 264 288 346 23 17 8 6 338 327 338 342 354 351 1 17 354 6 51 40 47 44 35 39 38 33 25 15 15 16
119 111 97 89 66 49 41 43 49 48 46 37 30 28 43 74 65 60 49 37 34 35 38 39 158 183 183 190 196 127 87 72 60 50 36 1 348 348 347 347 343 345 349 340 343 342 326 319 332 315 274 233 133 165 186 160 264 264 282 272 341 38 48 27 10 359 336 324 322 330 16 29 18 9 345 13 53 43 41 35 24 31 29 25 22 17 20 22
115 104 94 79 57 46 45 48 48 43 35 22 13 20 72 95 73 55 40 32 29 30 25 11 329 226 212 215 220 224 260 269 45 38 14 348 340 343 343 345 345 346 352 346 341 341 333 322 314 304 270 240 103 205 211 207 280 263 293 286 38 35 60 38 3 348 341 326 322 333 47 55 35 16 353 26 65 49 38 27 20 26 21 18 20 18 21 24
109 100 88 67 50 43 43 45 39 31 25 18 12 37 107 111 76 51 37 32 27 23 17 17 27 259 237 236 229 226 258 256 24 12 348 339 333 334 337 343 348 351 355 338 331 323 308 298 287 292 268 242 105 187 157 43 327 319 339 3 32 360 8 29 4 7 358 330 326 332 53 75 54 35 22 34 71 53 38 32 27 26 21 18 19 20 24 28
106 94 76 58 46 43 42 37 30 27 26 23 29 68 115 105 68 48 35 29 23 18 17 31 70 55 348 246 218 203 239 249 16 352 337 337 334 330 336 349 357 6 8 338 325 305 285 282 260 267 257 207 108 189 61 50 326 3 58 42 29 352 356 20 22 32 357 331 333 2 65 75 67 50 39 49 66 56 37 38 37 31 26 23 23 25 27 30
102 84 66 54 45 43 39 30 28 29 30 32 49 81 102 83 60 43 30 23 18 19 20 35 101 75 64 71 133 172 214 17 4 343 335 336 340 342 347 5 12 18 9 341 325 307 302 293 245 269 257 77 48 57 62 46 305 311 84 55 34 4 9 25 39 38 351 14 37 62 88 89 86 71 54 59 66 62 52 46 43 39 35 33 32 31 31 33
93 75 62 53 45 39 34 29 29 30 35 42 59 78 82 70 53 35 22 17 15 18 23 26 152 111 66 68 110 122 61 34 354 340 338 345 358 9 17 23 21 19 7 6 6 2 3 358 16 346 46 94 43 54 62 23 340 47 80 53 48 28 23 45 68 56 24 50 61 89 108 97 90 85 69 67 67 65 64 55 53 51 45 41 40 38 36 36
84 72 62 49 40 36 33 31 28 27 35 45 60 69 69 56 38 26 17 16 16 21 27 25 173 216 263 322 247 73 47 5 344 342 348 6 27 35 36 24 16 14 15 22 10 359 360 11 27 330 18 76 23 53 78 259 59 61 79 72 108 117 57 96 129 91 66 69 85 96 100 97 95 95 77 68 67 65 67 67 64 59 54 48 44 41 39 38
81 70 55 44 39 38 36 25 17 18 26 43 59 62 53 34 20 16 16 14 14 27 36 36 55 203 268 274 262 47 26 346 340 343 357 24 38 40 36 21 13 12 24 29 16 19 19 11 18 345 54 72 17 81 251 266 70 76 125 123 113 118 92 111 120 97 85 80 95 104 107 112 113 108 81 65 61 65 72 75 70 63 59 53 47 43 40 39
78 61 46 43 38 38 27 16 19 23 28 42 49 34 18 11 2 6 14 17 18 30 36 38 52 48 19 339 299 57 6 341 348 349 2 23 30 33 34 35 22 11 31 39 30 33 32 24 19 348 48 89 89 89 309 314 97 137 159 127 94 99 101 101 87 94 114 92 92 127 120 113 115 186 98 73 63 76 85 82 73 65 60 55 52 46 40 39
71 54 47 44 42 35 24 26 36 41 42 43 37 25 5 339 357 10 18 22 24 32 30 27 40 47 47 44 58 49 354 342 354 354 3 18 31 38 39 50 36 13 36 51 42 31 22 18 5 321 246 137 121 101 59 65 123 155 162 150 139 118 88 74 49 54 139 108 104 156 137 119 85 77 94 73 63 93 90 89 78 64 60 56 54 50 42 39
65 55 50 48 43 34 33 42 46 45 39 32 30 16 344 340 9 20 28 24 21 28 30 36 39 35 49 51 54 28 353 354 357 358 10 18 37 48 50 59 46 25 37 63 55 30 15 357 344 45 57 237 166 105 84 125 183 161 181 189 192 214 106 64 40 6 294 109 121 181 177 153 108 94 99 81 110 138 119 97 83 69 62 55 54 52 47 40
64 59 54 54 47 40 43 46 44 37 24 12 13 18 27 28 40 33 25 18 17 28 45 62 59 47 39 58 58 22 8 7 3 9 21 17 24 44 50 57 53 44 50 71 65 27 20 13 24 63 31 317 124 65 87 158 190 164 208 246 199 215 196 88 38 331 300 112 130 215 249 167 120 111 113 108 151 163 141 97 80 72 63 52 50 47 48 42
69 65 64 62 50 42 42 49 56 55 49 40 25 38 72 69 49 38 28 26 25 42 65 68 70 50 49 78 73 20 14 14 13 15 20 16 6 37 52 53 57 58 60 72 60 28 17 3 29 88 29 11 77 103 188 158 188 171 211 275 356 309 358 103 71 337 349 68 339 272 282 165 131 128 126 122 160 167 132 92 73 64 60 51 49 40 43 42
77 76 74 64 51 51 57 70 77 74 66 56 49 67 140 105 59 41 40 41 43 50 51 37 9 333 67 86 59 8 10 14 15 10 7 9 3 19 42 36 54 59 54 59 43 25 6 346 15 86 66 58 140 207 217 171 162 37 10 314 5 353 338 79 145 4 1 342 325 303 296 157 140 139 129 127 169 170 128 94 75 60 57 46 46 38 37 38
84 84 77 61 59 63 67 84 92 83 70 61 60 64 92 134 34 39 46 51 54 50 43 18 351 347 62 52 345 354 8 11 7 1 360 7 9 7 345 326 49 45 31 39 26 1 335 358 38 31 51 74 312 292 240 173 59 29 10 347 355 340 323 336 145 109 354 332 325 309 295 309 142 142 130 132 164 172 151 103 79 62 58 43 42 37 31 32
88 86 74 58 56 56 72 103 108 92 76 68 65 65 69 68 73 81 34 24 52 47 46 25 345 354 69 21 347 353 359 359 357 358 360 2 13 12 341 300 293 329 329 56 354 300 286 310 184 322 39 41 10 349 359 30 6 8 4 351 346 333 324 337 16 63 355 332 320 301 279 305 128 143 142 139 160 174 157 109 88 65 56 42 37 31 26 26
93 82 63 52 50 54 99 130 130 107 77 68 67 69 69 64 67 66 45 34 23 357 41 21 1 152 65 11 1 350 341 346 354 360 0 356 3 5 354 331 295 290 250 166 11 344 311 333 54 57 37 30 22 16 32 18 345 342 348 341 336 328 322 331 338 8 2 331 312 302 279 255 137 155 160 150 169 176 154 123 109 79 56 44 34 28 22 21
93 74 63 63 64 72 110 146 153 162 338 15 16 50 74 64 65 58 43 48 50 33 47 8 6 100 35 1 357 342 329 327 353 6 6 359 344 334 338 339 313 311 275 109 34 14 353 32 38 37 28 14 17 20 10 344 322 316 315 310 314 316 316 326 330 5 11 328 303 303 292 278 179 174 174 164 174 170 157 141 120 89 61 43 29 26 16 15
88 75 74 69 68 73 90 135 192 297 303 306 307 298 227 149 63 48 36 50 58 55 65 21 21 64 30 360 352 346 332 311 11 18 6 353 326 311 338 331 284 44 45 35 33 21 15 53 47 26 16 359 2 5 346 319 303 296 292 297 307 313 323 322 325 21 34 332 299 301 294 282 239 186 179 171 176 172 167 155 121 79 53 37 22 19 10 11
87 81 79 67 67 69 66 59 39 20 18 26 331 321 318 15 54 81 51 64 65 47 61 45 31 55 21 340 348 350 335 312 26 22 6 356 321 289 345 340 308 64 43 354 44 43 40 55 47 14 360 341 339 337 322 301 287 279 289 314 319 324 324 315 317 45 33 333 294 299 290 272 244 189 179 175 183 182 164 152 122 74 42 28 14 9 2 1
86 78 70 59 60 57 51 52 53 63 78 80 75 69 69 60 95 128 139 88 71 10 48 45 38 47 10 290 345 338 321 348 13 18 5 358 4 13 351 6 59 49 24 18 162 64 53 51 27 1 347 314 290 290 307 296 267 261 302 334 328 331 326 314 315 154 290 288 288 301 298 279 251 182 179 184 186 176 149 137 114 67 23 14 4 0 351 347
83 69 55 43 40 37 43 54 56 66 76 78 72 73 99 105 122 148 211 93 85 360 34 35 33 29 8 19 353 341 16 25 2 8 0 356 19 23 348 20 57 53 36 40 57 59 56 44 8 344 325 315 298 319 340 319 264 239 344 349 328 329 329 316 313 296 288 281 285 296 290 279 247 172 181 187 177 163 155 156 137 102 16 10 351 348 347 342
77 60 47 36 26 21 37 50 51 62 69 76 78 85 125 129 136 157 317 108 88 55 66 35 32 26 8 356 342 342 44 45 11 3 359 1 4 331 348 17 33 62 47 35 66 80 71 42 351 318 285 302 305 349 6 342 310 155 48 359 325 317 317 303 303 307 297 279 260 278 284 277 188 176 191 178 172 172 169 175 158 118 8 360 342 345 348 341
71 54 44 32 17 14 56 48 43 62 66 71 78 88 125 142 199 269 308 167 55 39 101 146 167 23 359 322 342 338 27 44 29 7 358 6 354 316 51 357 339 51 32 358 62 87 66 45 327 312 289 304 319 354 18 345 322 356 73 358 321 307 308 300 304 312 305 296 162 202 291 304 174 190 192 165 178 188 173 177 167 25 358 354 344 344 345 338
66 50 41 31 20 21 122 70 35 59 64 65 70 101 127 228 231 228 263 197 53 12 350 356 338 4 359 341 347 328 196 24 23 10 6 10 360 279 32 358 41 49 13 352 35 91 45 12 279 312 316 342 358 6 22 346 318 329 20 343 310 299 303 299 306 311 300 312 294 217 272 304 295 233 186 168 185 187 173 177 159 5 355 355 348 346 343 338
58 40 32 30 28 26 81 86 41 34 50 72 65 89 95 319 165 139 259 229 57 357 340 354 338 356 359 348 351 2 153 331 327 16 12 3 349 263 340 26 59 53 30 325 21 76 6 351 348 342 344 7 8 355 359 344 311 324 347 329 304 299 300 296 301 291 276 303 293 232 223 282 305 310 161 167 186 183 176 181 88 11 358 353 348 346 344 340
29 16 11 17 25 31 57 74 53 56 65 91 108 98 101 132 147 162 272 251 27 340 337 356 340 356 346 339 10 56 103 319 331 7 353 350 356 300 49 40 15 37 44 257 31 68 356 359 11 352 359 14 350 336 340 319 292 320 326 312 296 291 287 287 287 271 279 299 297 306 289 285 301 318 152 163 193 196 181 166 40 6 358 354 349 347 342 338
360 355 355 357 0 17 40 57 91 121 112 122 127 108 114 131 171 248 267 120 359 344 141 354 347 353 336 330 31 53 35 1 12 336 329 356 25 17 62 32 345 347 1 18 54 74 43 16 346 337 7 2 327 325 323 287 288 314 311 299 291 280 265 264 264 266 282 282 301 350 345 318 304 307 299 176 203 209 170 141 33 7 360 355 349 345 341 340
354 341 339 341 337 339 351 50 124 134 120 139 146 109 137 167 223 248 60 52 348 8 131 359 346 318 337 353 46 30 19 26 357 324 336 14 23 28 76 245 309 287 299 74 80 109 111 10 296 349 18 340 311 307 279 249 281 297 306 308 308 299 269 244 244 268 289 288 316 339 337 327 307 305 323 112 110 64 89 39 6 360 355 351 348 343 339 342
1 348 336 336 324 298 307 142 143 141 122 151 165 126 185 209 296 352 73 45 317 356 5 7 357 326 353 17 26 3 12 24 354 351 10 16 14 23 35 359 323 282 229 68 86 142 160 205 199 108 6 336 317 306 241 218 272 294 321 331 328 325 316 264 267 302 307 310 326 331 329 323 302 304 17 103 109 88 67 18 359 353 350 347 343 338 335 337
22 9 357 356 348 310 228 172 165 152 145 167 178 200 232 181 36 40 59 359 289 360 21 353 349 347 348 345 354 355 354 10 7 10 10 13 29 30 35 28 352 325 23 17 352 323 174 157 105 135 173 350 336 327 342 242 293 328 344 345 342 340 348 333 326 341 322 308 317 323 324 314 292 318 47 110 126 103 65 22 3 350 346 342 338 335 335 339
36 29 26 28 33 52 109 156 155 158 164 172 188 232 250 91 57 45 2 344 333 6 359 274 312 321 311 312 1 356 324 360 4 3 360 13 46 67 70 45 10 340 336 345 342 341 58 130 100 129 139 8 353 345 354 334 331 350 353 354 355 347 342 329 324 331 313 302 308 313 313 299 293 328 60 79 81 88 46 12 357 346 346 348 342 337 338 338
39 40 43 43 46 54 76 134 150 172 181 187 219 263 55 70 69 75 357 349 5 328 303 305 312 298 284 353 17 351 337 75 10 3 12 21 41 51 55 35 16 359 311 321 360 348 325 331 45 20 1 6 8 18 348 315 311 346 355 353 358 351 329 311 316 322 308 301 306 307 302 301 315 352 82 70 75 90 20 360 348 340 346 346 336 333 337 334
34 37 40 39 34 32 47 126 168 177 187 214 235 53 64 74 111 156 18 346 356 323 312 349 305 287 216 109 82 28 11 49 20 24 34 37 43 26 8 11 11 4 329 332 22 340 317 317 83 63 355 9 17 54 284 302 309 343 338 342 352 339 309 284 291 301 300 298 302 304 294 302 320 51 103 87 72 33 354 349 341 336 341 341 333 332 334 330
24 29 32 28 19 11 13 360 241 193 218 249 81 62 51 72 56 20 23 328 332 324 310 292 294 320 7 34 68 45 29 263 330 350 72 68 63 38 17 13 10 3 355 350 4 357 327 316 110 129 169 72 39 25 313 328 335 332 329 347 331 305 278 284 294 298 301 297 295 302 300 302 315 3 132 163 325 337 338 341 339 334 335 337 334 333 330 326
360 21 29 19 10 3 6 21 350 223 257 354 79 71 27 59 23 360 32 2 3 311 299 310 27 355 355 354 20 6 341 302 332 327 69 88 69 34 13 24 38 8 360 346 336 52 326 297 288 271 308 73 107 264 88 115 317 330 348 352 323 280 223 291 310 310 308 299 295 301 302 305 314 323 343 325 328 332 332 336 338 336 336 335 332 331 328 327
337 312 33 12 4 354 350 28 23 264 241 66 80 92 41 53 27 10 29 360 318 277 305 358 34 7 346 347 2 347 330 338 350 345 20 35 30 32 9 9 52 19 359 303 301 21 303 292 289 166 330 7 160 219 296 148 29 18 17 349 352 322 300 326 322 312 309 304 301 305 304 304 310 325 337 331 329 333 333 335 337 336 336 334 330 328 326 326
331 243 45 3 2 15 33 36 349 308 80 79 83 106 81 66 78 48 20 344 285 284 347 31 17 10 25 350 341 342 342 351 348 343 7 6 14 56 39 2 331 354 352 301 301 345 292 282 320 200 318 318 228 275 337 355 66 103 189 330 40 351 305 317 307 293 305 308 308 313 310 305 320 331 330 325 328 335 335 333 335 335 335 332 328 326 326 327
322 196 37 353 355 46 47 42 42 34 64 75 76 92 74 99 103 69 25 357 330 321 13 31 346 349 22 345 326 345 344 339 341 348 12 8 11 68 57 22 322 329 331 289 279 340 298 260 294 313 321 319 313 15 348 334 348 345 309 339 10 342 306 301 286 276 304 308 308 313 305 298 324 332 328 327 329 333 333 332 335 336 333 329 326 326 327 327
324 143 17 349 350 6 1 27 48 34 63 77 73 85 54 69 114 94 81 9 334 18 17 358 352 358 347 320 354 347 314 308 338 351 10 27 27 43 57 22 333 325 322 289 257 355 346 284 297 315 323 329 4 54 21 357 341 320 323 340 358 354 340 323 307 299 306 300 298 305 297 293 319 339 339 335 330 329 332 335 337 334 329 327 326 327 327 326
357 92 348 348 8 7 354 56 52 15 79 78 55 80 39 23 100 94 113 160 278 262 259 319 355 360 339 338 353 344 321 306 337 357 14 50 37 30 41 3 333 310 316 320 318 9 351 288 294 310 316 333 42 78 64 44 308 271 244 65 354 3 5 340 314 308 308 297 293 296 288 285 320 344 340 334 328 327 334 339 335 329 327 326 325 326 327 327
32 74 352 347 347 312 16 79 70 29 75 78 15 69 33 20 77 89 124 159 251 261 244 162 13 338 5 351 307 334 346 311 314 360 27 89 63 50 43 2 333 302 313 333 345 7 334 297 314 316 315 342 97 110 110 139 269 282 210 106 43 36 17 312 289 293 298 295 300 303 288 285 324 339 332 329 327 329 336 338 331 326 324 325 325 326 327 325
57 111 6 6 9 296 19 77 107 94 90 121 108 83 52 33 42 32 41 42 12 300 306 40 48 335 10 332 285 334 2 303 302 37 39 63 81 97 65 17 347 355 16 8 348 344 339 342 341 334 333 342 355 356 341 269 301 320 325 12 81 99 7 290 278 281 287 296 310 308 289 292 318 328 328 329 329 332 336 334 329 325 323 324 326 325 325 324
83 125 11 16 30 52 69 50 112 124 123 127 102 73 79 88 47 360 18 35 19 329 323 25 32 312 309 272 252 272 344 300 321 59 68 62 100 136 86 28 354 17 55 10 306 311 321 330 349 354 344 334 330 327 324 319 316 314 315 328 21 112 70 320 302 298 300 307 310 295 286 302 314 322 328 330 332 336 335 331 327 325 323 322 324 325 325 324
41 56 34 10 30 50 64 24 68 115 132 131 103 64 34 86 100 357 341 19 73 341 329 12 337 269 261 278 261 264 8 359 5 38 65 73 89 114 103 37 344 16 22 318 266 266 304 298 20 8 321 295 298 294 295 304 306 303 308 315 321 22 106 329 305 302 307 310 304 290 296 307 313 322 329 333 335 335 332 329 328 326 324 323 323 324 324 322
54 56 24 359 48 61 71 43 36 85 110 13 86 83 55 77 109 146 292 23 86 305 291 356 355 317 346 339 303 312 355 306 155 56 54 42 54 98 152 194 145 204 271 299 290 310 303 292 54 2 296 275 280 279 283 293 296 299 307 311 318 337 48 303 295 300 312 313 302 303 310 311 314 323 331 336 337 332 330 329 327 326 323 322 323 324 324 323
34 107 3 326 27 61 68 40 23 52 57 35 83 97 76 91 83 24 49 153 191 239 237 199 36 27 14 347 322 330 339 305 178 99 70 30 48 144 177 193 104 165 232 359 30 7 299 316 66 335 290 287 282 279 291 302 294 298 305 305 313 329 333 316 302 303 313 307 297 307 314 313 315 324 333 338 336 331 329 327 325 324 321 319 323 324 324 323
61 110 76 339 42 66 45 360 345 56 61 51 87 74 39 76 77 31 327 248 205 169 266 310 22 23 8 350 337 338 342 330 316 56 109 103 330 212 203 190 127 61 12 17 32 28 271 343 80 286 288 291 291 302 316 315 301 298 302 311 321 322 325 322 312 312 311 299 296 307 312 312 317 327 332 334 331 327 326 325 325 325 321 321 323 323 322 323
155 129 120 100 90 69 29 334 293 88 72 33 59 62 14 53 79 104 246 298 302 53 341 331 14 14 2 360 342 347 351 330 324 348 151 175 259 258 13 34 46 47 37 21 5 346 340 360 84 288 289 292 314 329 326 320 313 304 312 6 336 323 330 333 322 319 316 306 307 312 311 311 321 330 329 329 328 326 326 327 328 326 324 323 322 322 323 323
87 107 136 121 93 20 347 10 285 325 71 30 42 72 341 57 60 49 142 359 343 11 4 347 6 21 181 318 324 355 7 345 353 41 69 54 32 28 41 29 354 345 40 29 338 340 352 341 323 320 304 310 337 335 324 322 329 52 56 7 348 337 335 331 324 323 320 316 316 318 317 319 328 330 327 327 328 327 328 329 328 325 323 322 321 322 324 325
99 95 114 100 88 14 338 20 306 20 66 28 38 72 13 59 57 282 224 139 77 30 10 337 315 285 217 267 342 10 24 27 64 76 72 79 80 76 68 59 43 23 31 28 324 352 1 334 334 349 320 312 334 334 318 310 312 127 83 17 0 344 330 322 322 323 321 320 321 321 322 327 330 329 327 327 329 329 328 328 325 322 320 320 321 322 324 326